This demonstration page uses our WeatherBlox Daily Observations layout. Learn more.

Left ArrowRight Arrow

34.16533, -84.80231

Hourly Observations for July 10, 2020

Temp ( °F °C ) Dew Point ( °F °C ) Humidity (%) Winds ( mph kmh ) Pressure ( in mb ) Visibility ( mi km ) Precip ( " mm )
12:53 am 00:53 Clear 72 22.2 70 21.1 94 94 Calm 29.91 1013 10 16 0.00 0.00
1:08 am 01:08 Mostly Clear 73 22.8 70 21.1 90 90 Calm 29.93 1013 10 16 0.00 0.00
1:53 am 01:53 Clear 72 22.2 69 20.6 91 91 Calm 29.91 1013 9 14 0.00 0.00
2:53 am 02:53 Clear 72 22.2 70 21.1 94 94 Calm 29.91 1013 10 16 0.00 0.00
3:53 am 03:53 Clear 72 22.2 69 20.6 91 91 Calm 29.91 1013 10 16 0.00 0.00
4:53 am 04:53 Cloudy 72 22.2 69 20.6 91 91 Calm 29.92 1013 10 16 0.00 0.00
5:26 am 05:26 Partly Cloudy 71 21.7 69 20.6 94 94 Calm 29.94 1014 9 14 0.00 0.00
5:39 am 05:39 Mostly Cloudy with Nearby Thunderstorms 72 22.2 69 20.6 91 91 Calm 29.95 1014 9 14 0.00 0.00
5:53 am 05:53 Mostly Cloudy 73 22.8 70 21.1 90 90 Calm 29.93 1014 10 16 0.00 0.00
6:03 am 06:03 Cloudy 74 23.3 71 21.7 91 91 Calm 29.94 1014 10 16 0.00 0.00
6:10 am 06:10 Cloudy 74 23.3 71 21.7 91 91 Calm 29.95 1014 10 16 0.00 0.00
6:53 am 06:53 Cloudy with Light Rain 74 23.3 71 21.7 91 91 NNE 3 6 29.95 1014 9 14 0.00 0.00
7:53 am 07:53 Mostly Cloudy 75 23.9 72 22.2 90 90 Calm 29.94 1014 10 16 0.00 0.00
8:53 am 08:53 Mostly Cloudy 76 24.4 72 22.2 88 88 Calm 29.94 1014 10 16 0.00 0.00
9:43 am 09:43 Mostly Sunny 80 26.7 73 22.8 79 79 Calm 29.96 1014 10 16 0.00 0.00
9:53 am 09:53 Mostly Sunny 80 26.7 74 23.3 82 82 Calm 29.94 1014 10 16 0.00 0.00
10:53 am 10:53 Sunny 84 28.9 75 23.9 74 74 ENE 3 6 29.93 1014 10 16 0.00 0.00
11:53 am 11:53 Mostly Cloudy 88 31.1 75 23.9 66 66 Calm 29.93 1014 10 16 0.00 0.00
12:53 pm 12:53 Mostly Sunny 89 31.7 74 23.3 61 61 Calm 29.92 1013 10 16 0.00 0.00
1:53 pm 13:53 Partly Cloudy 89 31.7 73 22.8 59 59 VRB 3 6 29.91 1013 10 16 0.00 0.00
2:53 pm 14:53 Mostly Cloudy 91 32.8 74 23.3 57 57 Calm 29.89 1012 10 16 0.00 0.00
3:53 pm 15:53 Mostly Sunny 93 33.9 73 22.8 52 52 VRB 5 7 29.87 1012 10 16 0.00 0.00
4:53 pm 16:53 Partly Cloudy 94 34.4 73 22.8 51 51 VRB 5 7 29.87 1011 10 16 0.00 0.00
5:53 pm 17:53 Mostly Sunny 93 33.9 73 22.8 52 52 VRB 3 6 29.86 1011 10 16 0.00 0.00
6:53 pm 18:53 Sunny 92 33.3 72 22.2 52 52 VRB 3 6 29.85 1011 10 16 0.00 0.00
7:53 pm 19:53 Mostly Sunny 90 32.2 71 21.7 54 54 WNW 3 6 29.86 1011 10 16 0.00 0.00
8:53 pm 20:53 Sunny 87 30.6 71 21.7 59 59 VRB 3 6 29.87 1011 10 16 0.00 0.00
9:53 pm 21:53 Clear 81 27.2 72 22.2 74 74 Calm 29.88 1012 10 16 0.00 0.00
10:53 pm 22:53 Clear 79 26.1 72 22.2 79 79 Calm 29.88 1012 10 16 0.00 0.00
11:53 pm 23:53 Clear 78 25.6 72 22.2 82 82 Calm 29.88 1012 10 16 0.00 0.00

Powered by AerisWeather